Regional Weather Roundup
Issued by NWS Kansas City/Pleasant Hill, MO

Home | Current Version | Previous Version | Graphics & Text | Print | Product List | Glossary Off
Versions: 1 2 3 4 5 6 7 8 9 10 11 12 13 14 15 16 17 18 19 20 21 22 23 24 25 26 27

000
ASUS43 KEAX 262110
RWREAX

WEATHER ROUNDUP FOR EASTERN KANSAS AND NORTHWEST MISSOURI
NATIONAL WEATHER SERVICE KANSAS CITY/PLEASANT HILL MO
400 PM CDT FRI AUG 26 2016

KSZ040-057-103>105-MOZ028-029-037-043-262200-
...KANSAS CITY METROPOLITAN AREA...

CITY           SKY/WX    TMP DP  RH WIND       PRES   REMARKS
K.C. INTL      PTSUNNY   82  67  60 SE8       30.01F
K.C. DOWNTOWN  MOSUNNY   85  68  56 SE9       30.00F
LEES SUMMIT    PTSUNNY   83  70  64 SE8       30.03F
OLATHE - IXD   PTSUNNY   83  70  64 S10       30.02F
OLATHE - OJC   MOSUNNY   81  71  71 S10       30.02F
LAWRENCE       PTSUNNY   85  71  63 SE9       30.00F HX  90

$$

MOZ001>008-011>017-020>025-030>033-038>040-044>046-053-054-262200-
...NORTHERN AND CENTRAL MISSOURI...

CITY           SKY/WX    TMP DP  RH WIND       PRES   REMARKS
ST. JOSEPH     PTSUNNY   81  70  69 E7        30.02F
MOSBY          MOCLDY    81  70  69 NE5       30.03F
WHITEMAN AFB   PTSUNNY   80  77  89 VRB2      30.02F
CLINTON        CLOUDY    82  75  78 SE6       30.03F
SEDALIA        CLOUDY    80  73  79 NE5       30.04F
WARSAW         NOT AVBL
CHILLICOTHE    NOT AVBL
KIRKSVILLE     CLOUDY    77  72  84 E6        30.06F

$$

MOZ041-047>049-056>058-063>065-088>090-097-262200-
...EASTERN AND SOUTHERN MISSOURI...

CITY           SKY/WX    TMP DP  RH WIND       PRES   REMARKS
ST. LOUIS INTL CLOUDY    87  73  62 VRB3      30.04F HX  94
SPIRIT OF STL  CLOUDY    86  75  69 CALM      30.02F HX  95
COLUMBIA       CLOUDY    81  74  79 SE6       30.05F
JEFFERSON CITY CLOUDY    80  73  79 SE5       30.03F
ROLLA          CLOUDY    82  73  74 E3        30.05F
OSAGE BEACH    CLOUDY    79  74  84 E5        30.05F
SPRINGFIELD    MOSUNNY   81  71  71 S7        30.05F
BRANSON        LGT RAIN  81  72  74 SW6       30.09F
JOPLIN         CLOUDY    81  72  74 S10       30.04F
WEST PLAINS    MOSUNNY   85  68  56 VRB6      30.08F

$$

IAZ060-094-KSZ022-034>040-054-083-096-NEZ052-066-093-262200-
...KANSAS...SOUTHEAST NEBRASKA AND IOWA...

CITY           SKY/WX    TMP DP  RH WIND       PRES   REMARKS
TOPEKA         CLOUDY    82  69  64 S14       29.99F
MANHATTAN      PTSUNNY   80  68  66 SW9       30.01F
EMPORIA        MOSUNNY   82  67  60 S12       30.01F
CHANUTE        MOSUNNY   85  70  60 SE5       30.00F
WICHITA        PTSUNNY   84  67  56 S9        30.01F
OMAHA          CLOUDY    71  64  78 E9        30.07F
LINCOLN        CLOUDY    69  64  84 E5        30.08F
FALLS CITY     PTSUNNY   76  69  79 E6        30.03F
LAMONI         CLOUDY    75  67  76 NE6       30.08F
DES MOINES     LGT RAIN  72  65  78 NE8       30.10F

$$





USA.gov is the U.S. government's official web portal to all federal, state and local government web resources and services.